YT1XN-8 Weather Reports


time (UTC)temp
F
wind
direction
speed
knots
gust
knots
rain 1hr
in
rain 24hr
in
rain mn
in
humidity
%
barometer
mb
20260508004042 59 254 0.9 2.6 0.00 0.00 0.00 85 1016.2
20260508003641 59 254 0.9 2.6 0.00 0.00 0.00 84 1016.3
20260508003042 58 252 1.7 2.6 0.00 0.00 0.00 84 1016.3
20260508002541 58 265 0.0 0.0 0.00 0.00 0.00 83 1016.2
20260508002044 58 265 0.0 0.0 0.00 0.00 0.00 84 1016.2
20260508001441 58 265 0.0 0.0 0.00 0.00 0.00 84 1016.1
20260508001042 58 265 0.0 0.0 0.00 0.00 0.00 84 1016.1
20260508000342 58 265 0.0 0.9 0.00 0.00 0.00 84 1016.0
20260508000044 58 265 0.0 0.9 0.00 0.00 0.00 84 1016.1
20260507235241 58 265 0.0 0.9 0.00 0.00 0.00 84 1016.1
20260507235042 58 265 0.0 0.0 0.00 0.00 0.00 83 1016.2
20260507234141 59 265 0.0 0.9 0.00 0.00 0.00 83 1016.1
20260507234043 59 265 0.0 0.9 0.00 0.00 0.00 83 1016.2
20260507233041 59 265 0.0 1.7 0.00 0.00 0.00 82 1016.2
20260507232044 59 48 0.0 0.0 0.00 0.00 0.00 82 1016.3
20260507231941 59 48 0.0 0.0 0.00 0.00 0.00 82 1016.3
20260507231042 59 48 0.0 0.0 0.00 0.00 0.00 82 1016.3
20260507230841 59 48 0.0 0.0 0.00 0.00 0.00 82 1016.3
20260507230042 60 48 0.0 0.0 0.00 0.00 0.00 81 1016.5
20260507225741 60 48 0.0 0.0 0.00 0.00 0.00 81 1016.4
20260507225043 60 48 0.0 0.0 0.00 0.00 0.00 81 1016.4
20260507224641 60 48 0.0 0.9 0.00 0.00 0.00 81 1016.4
20260507224043 60 48 0.0 1.7 0.00 0.00 0.00 81 1016.4
20260507223541 60 48 0.0 1.7 0.00 0.00 0.00 80 1016.3
20260507223043 60 48 0.0 0.9 0.00 0.00 0.00 80 1016.4
20260507222441 61 48 0.0 0.9 0.00 0.00 0.00 80 1016.3
20260507222043 61 101 0.0 0.0 0.00 0.00 0.00 80 1016.4
20260507221341 61 101 0.0 0.0 0.00 0.00 0.00 80 1016.4
20260507221043 61 101 0.0 0.0 0.00 0.00 0.00 79 1016.4
20260507220241 61 101 0.0 0.0 0.00 0.00 0.00 80 1016.3
20260507220042 61 101 0.0 0.0 0.00 0.00 0.00 80 1016.4
20260507215141 61 101 0.0 0.0 0.00 0.00 0.00 80 1016.4
20260507215042 61 101 0.0 0.0 0.00 0.00 0.00 80 1016.4
20260507214041 61 101 0.0 0.0 0.00 0.00 0.00 80 1016.4
20260507213043 61 101 0.0 0.0 0.00 0.00 0.00 80 1016.3
20260507212941 61 101 0.0 0.0 0.00 0.00 0.00 80 1016.3
20260507212043 61 101 0.0 0.0 0.00 0.00 0.00 80 1016.2
20260507211841 61 101 0.0 0.0 0.00 0.00 0.00 80 1016.3
20260507211042 61 101 0.0 0.9 0.00 0.00 0.00 80 1016.2
20260507210741 61 101 0.0 0.9 0.00 0.00 0.00 80 1016.2
20260507210042 61 101 0.0 1.7 0.00 0.00 0.00 80 1016.2
20260507205641 61 101 0.0 1.7 0.00 0.00 0.00 80 1016.2
20260507205043 61 101 0.0 1.7 0.00 0.00 0.00 80 1016.0
20260507204541 61 101 0.0 1.7 0.00 0.00 0.00 80 1016.0
20260507204042 61 101 0.9 0.9 0.00 0.00 0.00 80 1016.0
20260507203441 61 101 0.0 0.9 0.00 0.00 0.00 80 1015.9
20260507203042 61 101 0.0 1.7 0.00 0.00 0.00 80 1015.9
20260507202342 61 101 0.0 1.7 0.00 0.00 0.00 80 1016.0
20260507202043 61 5 0.0 0.9 0.00 0.00 0.00 80 1015.9
20260507201242 62 5 0.0 0.9 0.00 0.00 0.00 79 1015.7
20260507201043 62 5 0.0 0.9 0.00 0.00 0.00 79 1015.8
20260507200142 62 5 0.0 0.9 0.00 0.00 0.00 78 1015.7
20260507200044 62 5 0.0 0.9 0.00 0.00 0.00 78 1015.7
20260507195042 62 5 0.0 0.0 0.00 0.00 0.00 77 1015.6
20260507194043 62 5 0.0 0.9 0.00 0.00 0.00 77 1015.5
20260507193942 63 5 0.0 0.9 0.00 0.00 0.00 77 1015.5
20260507193044 63 5 0.0 0.9 0.00 0.00 0.00 76 1015.4
20260507192842 63 5 0.0 0.9 0.00 0.00 0.00 76 1015.4
20260507192043 63 5 0.0 2.6 0.00 0.00 0.00 76 1015.4
20260507191742 63 5 0.0 2.6 0.00 0.00 0.00 76 1015.3
20260507191043 63 5 0.9 1.7 0.00 0.00 0.00 76 1015.3
20260507190642 63 5 0.0 2.6 0.00 0.00 0.00 76 1015.4
20260507190043 63 5 0.9 2.6 0.00 0.00 0.00 76 1015.3
20260507185542 63 10 0.9 2.6 0.00 0.00 0.00 76 1015.3
20260507185043 63 5 0.9 2.6 0.00 0.00 0.00 75 1015.3
20260507184442 63 16 1.7 1.7 0.00 0.00 0.00 75 1015.2
20260507184043 64 274 0.0 0.0 0.00 0.00 0.00 75 1015.2
20260507183342 64 274 0.0 0.0 0.00 0.00 0.00 75 1015.3
20260507183043 64 274 0.0 0.0 0.00 0.00 0.00 75 1015.2
20260507182242 64 274 0.0 0.0 0.00 0.00 0.00 75 1015.1
20260507182043 64 274 0.0 0.0 0.00 0.00 0.00 74 1015.2
20260507181142 64 274 0.0 3.5 0.00 0.00 0.00 74 1015.3
20260507181043 64 274 0.0 3.5 0.00 0.00 0.00 73 1015.2
20260507180042 65 287 1.7 4.3 0.00 0.00 0.00 73 1015.2
20260507175044 65 280 0.9 3.5 0.00 0.00 0.00 74 1015.3
20260507174942 65 300 0.0 3.5 0.00 0.00 0.00 74 1015.2
20260507174042 66 273 0.9 3.5 0.00 0.00 0.00 73 1015.3
20260507173841 66 277 1.7 3.5 0.00 0.00 0.00 73 1015.3
20260507173042 66 277 1.7 3.5 0.00 0.00 0.00 73 1015.1
20260507172741 66 273 1.7 3.5 0.00 0.00 0.00 72 1015.0
20260507172043 66 294 2.6 3.5 0.00 0.00 0.00 72 1015.0
20260507171641 66 265 2.6 3.5 0.00 0.00 0.00 71 1014.9
20260507171043 66 262 1.7 2.6 0.00 0.00 0.00 71 1014.9
20260507170541 67 246 1.7 3.5 0.00 0.00 0.00 71 1015.0
20260507170042 67 260 1.7 5.2 0.00 0.00 0.00 71 1014.9
20260507165441 67 250 3.5 4.3 0.00 0.00 0.00 71 1015.0
20260507165043 68 267 1.7 2.6 0.00 0.00 0.00 70 1014.9
20260507164341 68 277 1.7 2.6 0.00 0.00 0.00 69 1014.7
20260507164043 68 277 0.9 2.6 0.00 0.00 0.00 68 1014.8
20260507163241 68 272 0.0 1.7 0.00 0.00 0.00 68 1014.6
20260507163043 68 283 1.7 5.2 0.00 0.00 0.00 67 1014.7
20260507162141 69 279 0.9 3.5 0.00 0.00 0.00 66 1014.6
20260507162043 69 277 0.9 3.5 0.00 0.00 0.00 66 1014.6
20260507161041 69 254 1.7 3.5 0.00 0.00 0.00 65 1014.5
20260507160043 70 267 0.9 3.5 0.00 0.00 0.00 65 1014.6
20260507155941 70 265 1.7 3.5 0.00 0.00 0.00 64 1014.5
20260507155043 70 269 2.6 3.5 0.00 0.00 0.00 64 1014.6
20260507154841 70 275 0.9 3.5 0.00 0.00 0.00 64 1014.6
20260507154044 70 263 2.6 7.8 0.00 0.00 0.00 62 1014.6
20260507153741 70 266 5.2 7.0 0.00 0.00 0.00 63 1014.6
20260507153042 70 248 4.3 7.8 0.00 0.00 0.00 63 1014.5
20260507152641 70 271 5.2 7.0 0.00 0.00 0.00 63 1014.6
20260507152043 70 242 5.2 10.4 0.00 0.00 0.00 63 1014.5
20260507151541 71 262 6.1 10.4 0.00 0.00 0.00 61 1014.5
20260507151042 71 250 7.8 8.7 0.00 0.00 0.00 62 1014.6
20260507150441 71 271 2.6 7.8 0.00 0.00 0.00 62 1014.6
20260507150043 71 240 3.5 7.8 0.00 0.00 0.00 63 1014.5
20260507145341 72 260 2.6 3.5 0.00 0.00 0.00 63 1014.5
20260507145042 72 279 1.7 3.5 0.00 0.00 0.00 65 1014.5
20260507144241 71 246 1.7 3.5 0.00 0.00 0.00 64 1014.5
20260507144042 71 290 1.7 3.5 0.00 0.00 0.00 63 1014.5
20260507143141 72 254 0.9 7.8 0.00 0.00 0.00 64 1014.5
20260507143042 72 240 0.0 7.8 0.00 0.00 0.00 63 1014.5
20260507142041 72 270 2.6 4.3 0.00 0.00 0.00 63 1014.6
20260507141044 72 280 1.7 4.3 0.00 0.00 0.00 64 1014.7
20260507140941 72 271 1.7 4.3 0.00 0.00 0.00 63 1014.7
20260507140042 71 257 2.6 4.3 0.00 0.00 0.00 65 1014.8
20260507135841 71 283 1.7 4.3 0.00 0.00 0.00 65 1014.8
20260507135042 70 269 0.9 6.1 0.00 0.00 0.00 63 1014.8
20260507134741 70 259 2.6 6.1 0.00 0.00 0.00 64 1014.8
20260507134042 70 265 1.7 8.7 0.00 0.00 0.00 65 1014.9
20260507133641 70 256 4.3 8.7 0.00 0.00 0.00 65 1014.9
20260507133042 70 246 6.1 8.7 0.00 0.00 0.00 64 1014.9
20260507132541 70 277 3.5 8.7 0.00 0.00 0.00 65 1014.9
20260507132043 70 277 2.6 7.8 0.00 0.00 0.00 65 1014.9
20260507131441 70 240 4.3 6.1 0.00 0.00 0.00 64 1014.9
20260507131042 70 257 1.7 7.0 0.00 0.00 0.00 64 1014.9
20260507130341 70 249 3.5 7.0 0.00 0.00 0.00 64 1014.9
20260507130042 71 269 3.5 5.2 0.00 0.00 0.00 64 1014.9
20260507125241 71 277 1.7 6.1 0.00 0.00 0.00 61 1014.9
20260507125043 71 271 1.7 6.1 0.00 0.00 0.00 61 1015.0
20260507124141 72 249 2.6 7.8 0.00 0.00 0.00 60 1015.0
20260507124042 72 241 4.3 7.0 0.00 0.00 0.00 59 1015.1
20260507123041 73 243 2.6 7.8 0.00 0.00 0.00 57 1014.9
20260507122044 74 252 6.1 8.7 0.00 0.00 0.00 57 1015.0
20260507121941 74 269 3.5 8.7 0.00 0.00 0.00 57 1015.0
20260507121042 75 252 3.5 7.0 0.00 0.00 0.00 56 1015.1
20260507120841 75 246 3.5 7.0 0.00 0.00 0.00 56 1015.2
20260507120042 75 233 0.9 7.8 0.00 0.00 0.00 55 1015.2
20260507115741 75 253 7.0 7.8 0.00 0.00 0.00 56 1015.2
20260507115042 75 219 3.5 6.1 0.00 0.00 0.00 55 1015.3
20260507114641 75 242 0.9 8.7 0.00 0.00 0.00 53 1015.3
20260507114042 74 311 2.6 8.7 0.00 0.00 0.00 55 1015.4
20260507113541 74 212 0.9 6.1 0.00 0.00 0.00 55 1015.2
20260507113042 74 163 1.7 7.0 0.00 0.00 0.00 55 1015.2
20260507112441 73 218 1.7 7.0 0.00 0.00 0.00 56 1015.2
20260507112043 73 276 1.7 4.3 0.00 0.00 0.00 56 1015.3
20260507111341 72 53 0.9 2.6 0.00 0.00 0.00 58 1015.3
20260507111042 72 227 1.7 2.6 0.00 0.00 0.00 58 1015.3
20260507110241 72 252 0.9 3.5 0.00 0.00 0.00 58 1015.3
20260507110042 71 13 0.0 4.3 0.00 0.00 0.00 59 1015.3
20260507105141 71 266 1.7 7.0 0.00 0.00 0.00 60 1015.4
20260507105044 71 250 4.3 7.0 0.00 0.00 0.00 60 1015.4
20260507104042 70 236 1.7 6.1 0.00 0.00 0.00 60 1015.4
20260507103044 69 252 3.5 8.7 0.00 0.00 0.00 60 1015.5
20260507102942 69 248 3.5 8.7 0.00 0.00 0.00 61 1015.4
20260507102044 68 271 0.0 4.3 0.00 0.00 0.00 66 1015.6
20260507101842 67 203 0.0 4.3 0.00 0.00 0.00 65 1015.6
20260507101043 66 219 0.9 3.5 0.00 0.00 0.00 69 1015.7
20260507100742 66 231 0.0 3.5 0.00 0.00 0.00 68 1015.7
20260507100043 66 150 2.6 3.5 0.00 0.00 0.00 68 1015.8
20260507095642 65 138 2.6 3.5 0.00 0.00 0.00 70 1015.8
20260507095043 65 156 0.0 2.6 0.00 0.00 0.00 70 1015.8
20260507094542 64 207 0.0 2.6 0.00 0.00 0.00 71 1016.0
20260507094043 64 246 0.0 1.7 0.00 0.00 0.00 70 1016.0
20260507093442 64 146 1.7 2.6 0.00 0.00 0.00 71 1016.0
20260507093044 64 153 0.9 2.6 0.00 0.00 0.00 70 1016.0
20260507092342 64 225 0.9 2.6 0.00 0.00 0.00 71 1015.8
20260507092044 64 236 0.0 1.7 0.00 0.00 0.00 70 1015.8
20260507091242 64 232 0.0 2.6 0.00 0.00 0.00 72 1015.8
20260507091043 64 232 0.0 2.6 0.00 0.00 0.00 71 1015.8
20260507090142 64 146 0.0 2.6 0.00 0.00 0.00 72 1015.8
20260507090043 64 146 0.0 2.6 0.00 0.00 0.00 71 1015.8
20260507085042 64 211 0.0 2.6 0.00 0.00 0.00 69 1015.7
20260507084044 64 212 0.0 3.5 0.00 0.00 0.00 70 1015.6
20260507084007 64 206 0.0 3.5 0.00 0.00 0.00 69 1015.6
20260507083043 64 209 0.0 4.3 0.00 0.00 0.00 71 1015.6
20260507082044 63 235 0.9 3.5 0.00 0.00 0.00 73 1015.7
20260507081742 63 245 1.7 3.5 0.00 0.00 0.00 72 1015.7
20260507081042 63 200 0.9 5.2 0.00 0.00 0.00 72 1015.7
20260507080642 63 223 2.6 5.2 0.00 0.00 0.00 72 1015.7
20260507080042 63 243 2.6 4.3 0.00 0.00 0.00 72 1015.7
20260507075541 63 209 4.3 4.3 0.00 0.00 0.00 72 1015.7
20260507075044 63 233 1.7 3.5 0.00 0.00 0.00 71 1015.8
20260507074441 63 244 0.0 3.5 0.00 0.00 0.00 72 1015.7
20260507073341 63 227 1.7 5.2 0.00 0.00 0.00 73 1015.6
20260507072241 62 236 2.6 3.5 0.00 0.00 0.00 75 1015.6
20260507072044 62 171 0.9 4.3 0.00 0.00 0.00 76 1015.6
20260507071141 62 215 1.7 4.3 0.00 0.00 0.00 76 1015.6
20260507071044 62 254 4.3 4.3 0.00 0.00 0.00 76 1015.6
20260507070041 61 224 1.7 5.2 0.00 0.00 0.00 77 1015.6
20260507064941 61 238 5.2 6.1 0.00 0.00 0.00 76 1015.7
20260507063842 61 212 0.9 6.1 0.00 0.00 0.00 76 1015.7
20260507062741 61 198 0.9 7.0 0.00 0.00 0.00 76 1015.4
20260507061641 61 217 2.6 7.8 0.00 0.00 0.00 76 1015.4
20260507060541 62 211 4.3 5.2 0.00 0.00 0.00 75 1015.5
20260507055441 62 190 0.0 3.5 0.00 0.00 0.00 75 1015.5
20260507054341 62 227 0.0 7.0 0.00 0.00 0.00 75 1015.5
20260507053241 62 215 0.0 5.2 0.00 0.00 0.00 75 1015.5
20260507052141 62 153 1.7 3.5 0.00 0.00 0.00 77 1015.3
20260507051041 61 152 0.9 3.5 0.00 0.00 0.00 76 1015.2
20260507045941 61 155 1.7 4.3 0.00 0.00 0.00 75 1015.1
20260507044841 60 170 0.0 0.9 0.00 0.00 0.00 76 1015.0
20260507043741 61 213 0.0 1.7 0.00 0.00 0.00 77 1015.1
20260507042641 61 267 1.7 3.5 0.00 0.00 0.00 75 1015.0
20260507041541 61 224 1.7 2.6 0.00 0.00 0.00 75 1014.8
20260507040441 61 232 2.6 4.3 0.00 0.00 0.00 75 1014.7
20260507035341 61 232 0.9 3.5 0.00 0.00 0.00 76 1014.6
20260507035043 61 138 0.0 1.7 0.00 0.00 0.00 76 1014.5
20260507034241 61 138 0.9 3.5 0.00 0.00 0.00 76 1014.4
20260507033141 61 156 0.0 2.6 0.00 0.00 0.00 78 1014.3
20260507032041 61 223 0.0 0.9 0.00 0.00 0.00 79 1014.3
20260507031046 61 223 0.0 0.9 0.00 0.00 0.00 79 1014.2
20260507030941 61 223 0.0 0.9 0.00 0.00 0.00 79 1014.2
20260507025841 61 223 0.0 0.9 0.00 0.00 0.00 79 1014.1
20260507024741 61 223 0.0 2.6 0.00 0.00 0.00 79 1014.0
20260507023641 61 229 0.9 1.7 0.00 0.00 0.00 79 1014.0
20260507022541 61 240 0.0 0.0 0.00 0.00 0.00 79 1013.9
20260507022042 61 240 0.0 0.9 0.00 0.00 0.00 79 1013.7
20260507021441 61 240 0.0 2.6 0.00 0.00 0.00 79 1013.7
20260507021042 62 240 0.9 3.5 0.00 0.00 0.00 79 1013.7
20260507020341 62 249 1.7 3.5 0.00 0.00 0.00 79 1013.8
20260507020042 62 245 1.7 3.5 0.00 0.00 0.00 79 1013.7
20260507015241 62 260 1.7 2.6 0.00 0.00 0.00 79 1013.6
20260507015042 61 242 1.7 1.7 0.00 0.00 0.00 79 1013.6
20260507014141 61 281 0.0 1.7 0.00 0.00 0.00 78 1013.5
20260507014042 61 281 0.0 1.7 0.00 0.00 0.00 78 1013.5
20260507013053 61 286 0.9 1.7 0.00 0.00 0.00 78 1013.5
20260507012040 61 290 0.9 2.6 0.00 0.00 0.00 78 1013.3
20260507011042 61 296 0.0 0.9 0.00 0.00 0.00 77 1013.2
20260507010940 61 296 0.0 0.9 0.00 0.00 0.00 77 1013.4
20260507010041 62 296 0.0 0.9 0.00 0.00 0.00 76 1013.3
20260507005840 62 289 0.9 0.9 0.00 0.00 0.00 76 1013.2
20260507005041 62 252 0.0 2.6 0.00 0.00 0.00 75 1013.2
20260507004740 62 252 0.0 2.6 0.00 0.00 0.00 75 1013.2